Weather History for Bentonville, AR

Change the Weather History Date:

Tuesday, April 2, 2013

  Actual Average Record
Temperature  
Mean Temperature 37 °F -  
Max Temperature 39 °F 66 °F 86 °F (2012)
Min Temperature 35 °F 39 °F 22 °F (1992)
Degree Days  
Heating Degree Days 28    
Moisture  
Dew Point 33 °F    
Average Humidity 83    
Maximum Humidity 87    
Minimum Humidity 70    
Precipitation  
Precipitation 0.16 in - - ()
Sea Level Pressure  
Sea Level Pressure 30.19 in    
Wind  
Wind Speed 12 mph (ENE)    
Max Wind Speed 16 mph    
Max Gust Speed 22 mph    
Visibility 10 miles    
Events      
Averages and records for this station are not official NWS values.
T = Trace of Precipitation, MM = Missing Value Source: NWS Daily Summary

Daily Weather History Graph

Daily Weather History Graph

Search for Another Location

Airport:

Trip Planner

Search our weather history database for the weather conditions in past years. The results will help you decide how hot, cold, wet, or windy it might be!

Date:

Astronomy

Apr. 02, 2013 Rise Set
Actual Time 7:01 AM CDT 7:40 PM CDT
Civil Twilight 6:35 AM CDT 8:06 PM CDT
Nautical Twilight 6:04 AM CDT 8:36 PM CDT
Astronomical Twilight 5:33 AM CDT 9:08 PM CDT
Moon 1:38 AM CDT (4/2) 11:59 AM CDT (4/2)
Length of Visible Light 13h 30m
Length of Day
12h 38m
Waning Gibbous, 55% of the Moon is Illuminated
Apr 2
Waning Gibbous
Apr 2
Last Quarter
Apr 10
New
Apr 18
First Quarter
Apr 25
Full

Hourly Weather History & Observations

Time (CDT) Temp. Windchill Dew Point Humidity Pressure Visibility Wind Dir Wind Speed Gust Speed Precip Events Conditions
10:55 AM 37.4 °F 28.2 °F 33.8 °F 87% 30.22 in 10.0 mi East 16.1 mph - N/A   Overcast
11:15 AM 37.4 °F 29.8 °F 33.8 °F 87% 30.23 in 10.0 mi East 11.5 mph 17.3 mph N/A   Overcast
11:35 AM 37.4 °F 29.8 °F 33.8 °F 87% 30.22 in 10.0 mi East 11.5 mph - N/A   Overcast
11:55 AM 37.4 °F 29.8 °F 33.8 °F 87% 30.22 in 10.0 mi East 11.5 mph - 0.02 in   Overcast
12:15 PM 37.4 °F 30.8 °F 32.0 °F 81% 30.22 in 10.0 mi East 9.2 mph - N/A   Overcast
12:35 PM 37.4 °F 30.8 °F 33.8 °F 87% 30.21 in 10.0 mi East 9.2 mph - N/A   Overcast
12:55 PM 37.4 °F 30.3 °F 33.8 °F 87% 30.21 in 10.0 mi East 10.4 mph - N/A   Overcast
1:15 PM 37.4 °F 30.8 °F 33.8 °F 87% 30.21 in 10.0 mi East 9.2 mph - N/A   Overcast
1:35 PM 37.4 °F 29.8 °F 33.8 °F 87% 30.20 in 10.0 mi ENE 11.5 mph - 0.01 in   Overcast
1:55 PM 37.4 °F 29.8 °F 33.8 °F 87% 30.20 in 10.0 mi East 11.5 mph - 0.02 in   Overcast
2:15 PM 37.4 °F 32.1 °F 33.8 °F 87% 30.22 in 10.0 mi East 6.9 mph - 0.01 in   Overcast
2:35 PM 37.4 °F 32.1 °F 33.8 °F 87% 30.21 in 9.0 mi East 6.9 mph - 0.04 in   Overcast
2:55 PM 37.4 °F 30.8 °F 33.8 °F 87% 30.20 in 10.0 mi ENE 9.2 mph - 0.06 in   Overcast
3:15 PM 37.4 °F 29.8 °F 33.8 °F 87% 30.19 in 10.0 mi ENE 11.5 mph 16.1 mph 0.01 in   Overcast
3:35 PM 39.2 °F 32.5 °F 33.8 °F 81% 30.19 in 10.0 mi East 10.4 mph - 0.03 in   Overcast
3:55 PM 37.4 °F 28.9 °F 33.8 °F 87% 30.18 in 9.0 mi ENE 13.8 mph - 0.04 in   Overcast
4:15 PM 37.4 °F 30.3 °F 33.8 °F 87% 30.17 in 10.0 mi East 10.4 mph 19.6 mph 0.01 in   Overcast
4:35 PM 39.2 °F 31.2 °F 35.6 °F 87% 30.17 in 10.0 mi East 13.8 mph 17.3 mph 0.02 in   Overcast
4:55 PM 39.2 °F 32.0 °F 33.8 °F 81% 30.17 in 10.0 mi ENE 11.5 mph - 0.02 in   Overcast
5:15 PM 39.2 °F 31.2 °F 33.8 °F 81% 30.17 in 10.0 mi ENE 13.8 mph - N/A   Overcast
5:35 PM 39.2 °F 32.0 °F 33.8 °F 81% 30.17 in 10.0 mi East 11.5 mph 20.7 mph N/A   Overcast
5:55 PM 39.2 °F 31.6 °F 33.8 °F 81% 30.16 in 10.0 mi ENE 12.7 mph - N/A   Overcast
6:15 PM 37.4 °F 29.3 °F 33.8 °F 87% 30.17 in 10.0 mi ENE 12.7 mph - N/A   Overcast
6:35 PM 37.4 °F 32.1 °F 33.8 °F 87% 30.18 in 10.0 mi ENE 6.9 mph - N/A   Overcast
6:55 PM 37.4 °F 29.8 °F 33.8 °F 87% 30.18 in 10.0 mi ENE 11.5 mph - N/A   Overcast
7:15 PM 37.4 °F 29.3 °F 33.8 °F 87% 30.18 in 10.0 mi ENE 12.7 mph - N/A   Overcast
7:35 PM 37.4 °F 29.8 °F 33.8 °F 87% 30.18 in 10.0 mi East 11.5 mph - N/A   Overcast
7:55 PM 37.4 °F 29.8 °F 33.8 °F 87% 30.18 in 10.0 mi East 11.5 mph 16.1 mph N/A   Overcast
8:15 PM 37.4 °F 28.5 °F 33.8 °F 87% 30.17 in 10.0 mi ENE 15.0 mph - N/A   Overcast
8:35 PM 37.4 °F 28.2 °F 32.0 °F 81% 30.17 in 10.0 mi ENE 16.1 mph 20.7 mph N/A   Overcast
8:55 PM 37.4 °F 29.3 °F 30.2 °F 75% 30.17 in 10.0 mi ENE 12.7 mph 21.9 mph N/A   Overcast
9:15 PM 35.6 °F 26.6 °F 30.2 °F 81% 30.18 in 10.0 mi East 13.8 mph - N/A   Overcast
9:35 PM 35.6 °F 27.1 °F 30.2 °F 81% 30.18 in 10.0 mi East 12.7 mph 18.4 mph N/A   Overcast
9:55 PM 37.4 °F 30.8 °F 30.2 °F 75% 30.19 in 10.0 mi East 9.2 mph - N/A   Overcast
10:15 PM 37.4 °F 29.8 °F 28.4 °F 70% 30.19 in 10.0 mi East 11.5 mph - N/A   Overcast
10:35 PM 37.4 °F 30.3 °F 30.2 °F 75% 30.19 in 10.0 mi East 10.4 mph - N/A   Overcast
10:55 PM 37.4 °F 30.8 °F 28.4 °F 70% 30.19 in 10.0 mi East 9.2 mph - N/A   Overcast
11:15 PM 37.4 °F 30.3 °F 28.4 °F 70% 30.20 in 10.0 mi East 10.4 mph - N/A   Overcast
11:35 PM 37.4 °F 31.4 °F 28.4 °F 70% 30.20 in 10.0 mi ENE 8.1 mph - N/A   Overcast
11:55 PM 37.4 °F 29.8 °F 28.4 °F 70% 30.18 in 10.0 mi ENE 11.5 mph - N/A   Overcast